QPF
0.00 0.00 0.00 0.00 0.00 0.00 0.00 0.00 0.00 0.00 0.00 0.00 0.00 0.00 0.00 0.00 0.00 0.00 0.00 0.00 0.00 0.00 0.00 0.00 0.00 0.01 0.02 0.02 0.02 0.02 0.01 0.01 0.01 0.00 0.00 0.00 0.00 0.01 0.01 0.01 0.01 0.01 0.01 0.01 0.01 0.01 0.01 0.01 0.00
0.00 0.00 0.00 0.00 0.00 0.00 0.00 0.00 0.00 0.00 0.00 0.00 0.00 0.00 0.00 0.00 0.00 0.00 0.00 0.00 0.00 0.00 0.00 0.00 0.00 0.01 0.02 0.02 0.01 0.01 0.01 0.01 0.01 0.01 0.00 0.00 0.00 0.00 0.00 0.00 0.00 0.00 0.00 0.00 0.00 0.00 0.00 0.00 0.00
0.00 0.00 0.00 0.00 0.00 0.00 0.00 0.00 0.00 0.00 0.00 0.00 0.00 0.00 0.00 0.00 0.00 0.00 0.00 0.00 0.00 0.00 0.00 0.00 0.00 0.01 0.01 0.01 0.01 0.01 0.01 0.01 0.01 0.01 0.01 0.01 0.00 0.00 0.00 0.00 0.00 0.00 0.00 0.00 0.00 0.00 0.00 0.00 0.00
0.00 0.00 0.00 0.00 0.00 0.00 0.00 0.00 0.00 0.00 0.00 0.00 0.00 0.00 0.00 0.00 0.00 0.00 0.00 0.00 0.00 0.00 0.00 0.00 0.00 0.01 0.01 0.01 0.01 0.01 0.01 0.01 0.01 0.01 0.01 0.00 0.00 0.00 0.00 0.00 0.00 0.00 0.00 0.00 0.00 0.00 0.00 0.00 0.00
0.00 0.00 0.00 0.00 0.00 0.00 0.00 0.00 0.00 0.00 0.00 0.00 0.00 0.00 0.00 0.00 0.00 0.00 0.00 0.00 0.00 0.00 0.00 0.00 0.00 0.01 0.01 0.01 0.01 0.01 0.01 0.01 0.01 0.01 0.00 0.00 0.00 0.00 0.00 0.00 0.00 0.00 0.00 0.00 0.00 0.00 0.00 0.00 0.00
0.00 0.00 0.00 0.00 0.00 0.00 0.00 0.00 0.00 0.00 0.00 0.00 0.00 0.00 0.00 0.00 0.00 0.00 0.00 0.00 0.00 0.00 0.00 0.00 0.00 0.01 0.01 0.01 0.01 0.01 0.01 0.01 0.01 0.01 0.00 0.00 0.00 0.00 0.00 0.00 0.00 0.00 0.00 0.00 0.00 0.00 0.00 0.00 0.00
0.00 0.00 0.00 0.00 0.00 0.00 0.00 0.00 0.00 0.00 0.00 0.00 0.00 0.00 0.00 0.00 0.00 0.00 0.00 0.00 0.00 0.00 0.00 0.00 0.00 0.00 0.01 0.01 0.01 0.01 0.01 0.02 0.01 0.00 0.00 0.00 0.00 0.00 0.00 0.00 0.00 0.00 0.00 0.00 0.00 0.00 0.00 0.00 0.00
0.00 0.00 0.00 0.00 0.00 0.00 0.00 0.00 0.00 0.00 0.00 0.00 0.00 0.00 0.00 0.00 0.00 0.00 0.00 0.00 0.00 0.00 0.00 0.00 0.00 0.00 0.00 0.00 0.01 0.01 0.01 0.01 0.01 0.00 0.00 0.00 0.00 0.00 0.00 0.00 0.00 0.00 0.00 0.00 0.00 0.00 0.00 0.00 0.00
0.00 0.00 0.00 0.00 0.00 0.00 0.00 0.00 0.00 0.00 0.00 0.00 0.00 0.00 0.00 0.00 0.00 0.00 0.00 0.00 0.00 0.00 0.00 0.00 0.00 0.00 0.00 0.00 0.00 0.01 0.01 0.01 0.01 0.00 0.00 0.00 0.00 0.00 0.00 0.00 0.00 0.00 0.00 0.00 0.00 0.00 0.00 0.00 0.00
0.00 0.00 0.00 0.00 0.00 0.00 0.00 0.00 0.00 0.00 0.00 0.00 0.00 0.00 0.00 0.00 0.00 0.00 0.00 0.00 0.00 0.00 0.00 0.00 0.00 0.00 0.00 0.00 0.00 0.00 0.01 0.01 0.01 0.00 0.00 0.00 0.00 0.00 0.00 0.00 0.00 0.00 0.00 0.00 0.00 0.00 0.00 0.00 0.00
0.00 0.00 0.00 0.00 0.00 0.00 0.00 0.00 0.00 0.00 0.00 0.00 0.00 0.00 0.00 0.00 0.00 0.00 0.00 0.00 0.00 0.00 0.00 0.00 0.00 0.00 0.00 0.00 0.00 0.00 0.01 0.01 0.01 0.00 0.00 0.00 0.00 0.00 0.00 0.00 0.00 0.00 0.00 0.00 0.00 0.00 0.00 0.00 0.00
0.00 0.00 0.00 0.00 0.00 0.00 0.00 0.00 0.00 0.00 0.00 0.00 0.00 0.00 0.00 0.00 0.00 0.00 0.00 0.00 0.00 0.00 0.00 0.00 0.00 0.00 0.00 0.00 0.00 0.00 0.00 0.01 0.01 0.00 0.00 0.00 0.00 0.00 0.00 0.00 0.00 0.00 0.00 0.00 0.00 0.00 0.00 0.00 0.00
0.00 0.00 0.00 0.00 0.00 0.00 0.00 0.00 0.00 0.00 0.00 0.00 0.00 0.00 0.00 0.00 0.00 0.00 0.00 0.00 0.00 0.00 0.00 0.00 0.00 0.00 0.00 0.00 0.00 0.00 0.00 0.00 0.00 0.00 0.00 0.00 0.00 0.00 0.00 0.00 0.00 0.00 0.00 0.00 0.00 0.00 0.00 0.00 0.00
0.00 0.00 0.00 0.00 0.00 0.00 0.00 0.00 0.00 0.00 0.00 0.00 0.00 0.00 0.00 0.00 0.00 0.00 0.00 0.00 0.00 0.00 0.00 0.00 0.00 0.00 0.00 0.00 0.00 0.00 0.00 0.00 0.00 0.00 0.00 0.00 0.00 0.00 0.00 0.00 0.00 0.00 0.00 0.00 0.00 0.00 0.00 0.00 0.00
0.00 0.00 0.00 0.00 0.00 0.00 0.00 0.00 0.00 0.00 0.00 0.00 0.00 0.00 0.00 0.00 0.00 0.00 0.00 0.00 0.00 0.00 0.00 0.00 0.00 0.00 0.00 0.00 0.00 0.00 0.00 0.00 0.00 0.00 0.00 0.00 0.00 0.00 0.00 0.00 0.00 0.00 0.00 0.00 0.00 0.00 0.00 0.00 0.00
0.00 0.00 0.00 0.00 0.00 0.00 0.00 0.00 0.00 0.00 0.00 0.00 0.00 0.00 0.00 0.00 0.00 0.00 0.00 0.00 0.00 0.00 0.00 0.00 0.00 0.00 0.00 0.00 0.00 0.00 0.00 0.00 0.00 0.00 0.00 0.00 0.00 0.00 0.00 0.01 0.00 0.00 0.00 0.00 0.00 0.00 0.00 0.00 0.00
0.00 0.00 0.00 0.00 0.00 0.00 0.00 0.00 0.00 0.00 0.00 0.00 0.00 0.00 0.00 0.00 0.00 0.00 0.00 0.00 0.00 0.00 0.00 0.00 0.00 0.00 0.00 0.00 0.00 0.00 0.00 0.00 0.00 0.00 0.00 0.00 0.00 0.00 0.01 0.01 0.01 0.00 0.00 0.00 0.00 0.00 0.00 0.00 0.00
0.00 0.00 0.00 0.00 0.00 0.00 0.00 0.00 0.00 0.00 0.00 0.00 0.00 0.00 0.00 0.00 0.00 0.00 0.00 0.00 0.00 0.00 0.00 0.00 0.00 0.00 0.00 0.00 0.00 0.01 0.01 0.01 0.01 0.00 0.00 0.00 0.00 0.00 0.00 0.01 0.00 0.00 0.00 0.00 0.00 0.00 0.00 0.00 0.00
0.00 0.00 0.00 0.00 0.00 0.00 0.00 0.00 0.00 0.00 0.00 0.00 0.00 0.00 0.00 0.00 0.00 0.00 0.00 0.00 0.00 0.00 0.00 0.00 0.00 0.00 0.00 0.00 0.01 0.01 0.01 0.01 0.01 0.00 0.00 0.00 0.00 0.00 0.00 0.00 0.00 0.00 0.00 0.00 0.00 0.00 0.00 0.00 0.00
0.00 0.00 0.00 0.00 0.00 0.00 0.00 0.00 0.00 0.00 0.00 0.00 0.00 0.00 0.00 0.00 0.00 0.00 0.00 0.00 0.00 0.00 0.00 0.00 0.00 0.00 0.00 0.00 0.00 0.00 0.00 0.00 0.00 0.00 0.00 0.00 0.00 0.00 0.00 0.00 0.00 0.00 0.00 0.00 0.00 0.00 0.00 0.00 0.00
0.00 0.00 0.00 0.00 0.00 0.00 0.00 0.00 0.00 0.00 0.00 0.00 0.00 0.00 0.00 0.00 0.00 0.00 0.00 0.00 0.00 0.00 0.00 0.00 0.00 0.00 0.00 0.00 0.00 0.00 0.01 0.01 0.01 0.01 0.00 0.00 0.00 0.00 0.00 0.00 0.00 0.00 0.00 0.00 0.00 0.00 0.00 0.00 0.00
0.00 0.00 0.00 0.00 0.00 0.00 0.00 0.00 0.00 0.00 0.00 0.00 0.00 0.00 0.00 0.00 0.00 0.00 0.00 0.00 0.00 0.00 0.00 0.00 0.00 0.00 0.00 0.00 0.00 0.00 0.00 0.00 0.00 0.00 0.00 0.00 0.00 0.00 0.00 0.00 0.00 0.00 0.00 0.00 0.00 0.00 0.00 0.00 0.00
0.00 0.00 0.00 0.00 0.00 0.00 0.00 0.00 0.00 0.00 0.00 0.00 0.00 0.00 0.00 0.00 0.00 0.00 0.00 0.00 0.00 0.00 0.00 0.00 0.00 0.00 0.00 0.00 0.00 0.00 0.00 0.00 0.00 0.00 0.00 0.00 0.00 0.00 0.00 0.00 0.00 0.00 0.00 0.00 0.00 0.00 0.00 0.00 0.00
0.00 0.00 0.00 0.00 0.00 0.00 0.00 0.00 0.00 0.00 0.00 0.00 0.00 0.00 0.00 0.00 0.00 0.00 0.00 0.00 0.00 0.00 0.00 0.00 0.00 0.00 0.00 0.00 0.00 0.00 0.00 0.00 0.00 0.00 0.00 0.00 0.00 0.00 0.00 0.00 0.00 0.00 0.00 0.00 0.00 0.00 0.00 0.00 0.00
0.00 0.00 0.01 0.01 0.01 0.00 0.00 0.00 0.00 0.00 0.00 0.00 0.00 0.00 0.00 0.00 0.00 0.00 0.00 0.00 0.00 0.00 0.00 0.00 0.00 0.00 0.00 0.00 0.00 0.00 0.00 0.00 0.00 0.00 0.00 0.00 0.00 0.00 0.00 0.00 0.00 0.00 0.00 0.00 0.00 0.00 0.00 0.00 0.00
0.00 0.00 0.01 0.01 0.00 0.00 0.00 0.00 0.00 0.00 0.00 0.00 0.00 0.00 0.00 0.00 0.00 0.00 0.00 0.00 0.00 0.00 0.00 0.00 0.00 0.00 0.00 0.00 0.00 0.00 0.00 0.00 0.00 0.00 0.00 0.00 0.00 0.00 0.00 0.00 0.00 0.00 0.00 0.00 0.00 0.00 0.00 0.00 0.00
0.00 0.00 0.00 0.00 0.01 0.00 0.00 0.00 0.00 0.00 0.00 0.00 0.00 0.00 0.00 0.00 0.00 0.00 0.00 0.00 0.00 0.00 0.00 0.00 0.00 0.00 0.00 0.00 0.00 0.00 0.00 0.00 0.00 0.00 0.00 0.00 0.00 0.00 0.00 0.00 0.00 0.00 0.00 0.00 0.00 0.00 0.00 0.00 0.00
0.00 0.00 0.01 0.02 0.02 0.01 0.00 0.00 0.00 0.00 0.00 0.00 0.00 0.00 0.00 0.00 0.00 0.00 0.00 0.00 0.00 0.00 0.00 0.00 0.00 0.00 0.00 0.00 0.00 0.00 0.00 0.00 0.00 0.00 0.00 0.00 0.00 0.00 0.00 0.00 0.00 0.00 0.00 0.00 0.00 0.00 0.00 0.00 0.00
0.00 0.00 0.01 0.02 0.01 0.00 0.00 0.00 0.00 0.00 0.00 0.00 0.00 0.00 0.00 0.00 0.00 0.00 0.00 0.00 0.00 0.00 0.00 0.00 0.00 0.00 0.00 0.00 0.00 0.00 0.00 0.00 0.00 0.00 0.00 0.00 0.00 0.00 0.00 0.00 0.00 0.00 0.00 0.00 0.00 0.00 0.00 0.00 0.00
0.00 0.00 0.01 0.01 0.01 0.00 0.00 0.00 0.00 0.00 0.00 0.00 0.00 0.00 0.00 0.00 0.00 0.00 0.00 0.00 0.00 0.00 0.00 0.00 0.00 0.00 0.00 0.00 0.00 0.00 0.00 0.00 0.00 0.00 0.00 0.00 0.00 0.00 0.00 0.00 0.00 0.00 0.00 0.00 0.00 0.00 0.00 0.00 0.00
MSLP
1011.33 1011.86 1012.42 1012.90 1013.19 1013.23 1012.99 1012.53 1011.92 1011.29 1010.76 1010.45 1010.39 1010.59 1010.99 1011.51 1012.05 1012.51 1012.84 1013.06 1013.19 1013.32 1013.50 1013.80 1014.25 1014.82 1015.46 1016.09 1016.66 1017.11 1017.44 1017.65 1017.80 1017.93 1018.09 1018.29 1018.52 1018.78 1019.02 1019.22 1019.35 1019.43 1019.48 1019.52 1019.57 1019.65 1019.75 1019.86 1019.94
1011.50 1012.07 1012.61 1013.00 1013.14 1013.00 1012.58 1011.96 1011.25 1010.58 1010.08 1009.82 1009.84 1010.13 1010.60 1011.16 1011.71 1012.17 1012.50 1012.72 1012.88 1013.04 1013.30 1013.68 1014.20 1014.83 1015.51 1016.17 1016.76 1017.22 1017.56 1017.80 1017.99 1018.17 1018.38 1018.63 1018.91 1019.20 1019.45 1019.64 1019.77 1019.83 1019.87 1019.90 1019.95 1020.03 1020.13 1020.24 1020.32
1011.74 1012.31 1012.78 1013.04 1013.01 1012.69 1012.11 1011.37 1010.59 1009.91 1009.44 1009.25 1009.35 1009.70 1010.22 1010.80 1011.36 1011.82 1012.16 1012.40 1012.60 1012.84 1013.17 1013.62 1014.21 1014.89 1015.60 1016.27 1016.85 1017.31 1017.66 1017.92 1018.13 1018.36 1018.62 1018.91 1019.23 1019.53 1019.79 1019.99 1020.12 1020.18 1020.22 1020.26 1020.32 1020.40 1020.50 1020.60 1020.66
1012.01 1012.53 1012.89 1013.00 1012.81 1012.33 1011.63 1010.81 1010.01 1009.35 1008.94 1008.82 1008.98 1009.38 1009.92 1010.51 1011.06 1011.51 1011.85 1012.13 1012.39 1012.70 1013.11 1013.64 1014.29 1015.00 1015.72 1016.38 1016.94 1017.38 1017.72 1017.99 1018.24 1018.50 1018.80 1019.13 1019.47 1019.80 1020.08 1020.28 1020.42 1020.50 1020.55 1020.61 1020.68 1020.77 1020.87 1020.95 1021.01
1012.24 1012.67 1012.89 1012.85 1012.52 1011.93 1011.16 1010.32 1009.55 1008.96 1008.63 1008.59 1008.81 1009.23 1009.77 1010.33 1010.84 1011.27 1011.62 1011.92 1012.24 1012.62 1013.10 1013.70 1014.39 1015.12 1015.83 1016.47 1017.00 1017.42 1017.76 1018.04 1018.31 1018.60 1018.94 1019.31 1019.68 1020.02 1020.31 1020.53 1020.69 1020.79 1020.87 1020.95 1021.04 1021.14 1021.24 1021.32 1021.35
1012.37 1012.67 1012.75 1012.57 1012.13 1011.48 1010.70 1009.92 1009.24 1008.76 1008.54 1008.58 1008.85 1009.28 1009.78 1010.29 1010.75 1011.14 1011.47 1011.79 1012.15 1012.59 1013.13 1013.78 1014.49 1015.22 1015.91 1016.52 1017.02 1017.43 1017.76 1018.05 1018.36 1018.70 1019.07 1019.47 1019.87 1020.23 1020.54 1020.77 1020.94 1021.07 1021.18 1021.28 1021.39 1021.50 1021.60 1021.66 1021.67
1012.34 1012.51 1012.45 1012.15 1011.64 1010.99 1010.27 1009.59 1009.05 1008.72 1008.63 1008.76 1009.07 1009.48 1009.94 1010.37 1010.76 1011.09 1011.39 1011.71 1012.09 1012.57 1013.15 1013.82 1014.54 1015.26 1015.92 1016.50 1016.98 1017.38 1017.72 1018.06 1018.41 1018.79 1019.21 1019.64 1020.06 1020.44 1020.75 1020.99 1021.17 1021.31 1021.44 1021.56 1021.68 1021.80 1021.89 1021.94 1021.93
1012.16 1012.20 1012.02 1011.64 1011.10 1010.48 1009.86 1009.33 1008.96 1008.80 1008.84 1009.05 1009.38 1009.77 1010.16 1010.52 1010.81 1011.08 1011.34 1011.65 1012.04 1012.53 1013.13 1013.80 1014.51 1015.20 1015.84 1016.39 1016.86 1017.27 1017.65 1018.03 1018.44 1018.89 1019.36 1019.82 1020.26 1020.64 1020.94 1021.18 1021.35 1021.50 1021.63 1021.76 1021.88 1022.00 1022.08 1022.11 1022.10
1011.87 1011.79 1011.52 1011.08 1010.56 1010.00 1009.50 1009.13 1008.93 1008.92 1009.07 1009.35 1009.69 1010.04 1010.36 1010.63 1010.85 1011.04 1011.26 1011.55 1011.93 1012.43 1013.02 1013.68 1014.37 1015.03 1015.64 1016.18 1016.66 1017.09 1017.52 1017.97 1018.44 1018.95 1019.47 1019.97 1020.42 1020.80 1021.09 1021.30 1021.46 1021.59 1021.71 1021.84 1021.96 1022.06 1022.14 1022.16 1022.14
1011.53 1011.37 1011.03 1010.58 1010.08 1009.60 1009.22 1008.99 1008.93 1009.03 1009.27 1009.57 1009.90 1010.20 1010.45 1010.63 1010.77 1010.91 1011.09 1011.36 1011.73 1012.23 1012.81 1013.45 1014.11 1014.75 1015.33 1015.87 1016.36 1016.84 1017.32 1017.84 1018.39 1018.96 1019.52 1020.05 1020.51 1020.88 1021.15 1021.34 1021.47 1021.58 1021.69 1021.80 1021.91 1022.00 1022.07 1022.09 1022.07
1011.22 1011.01 1010.64 1010.20 1009.74 1009.34 1009.05 1008.92 1008.95 1009.12 1009.37 1009.67 1009.95 1010.18 1010.34 1010.45 1010.52 1010.62 1010.78 1011.04 1011.41 1011.90 1012.47 1013.10 1013.73 1014.35 1014.92 1015.46 1015.98 1016.49 1017.04 1017.62 1018.23 1018.86 1019.47 1020.02 1020.48 1020.84 1021.10 1021.27 1021.38 1021.47 1021.56 1021.66 1021.76 1021.85 1021.92 1021.94 1021.91
1010.97 1010.75 1010.39 1009.97 1009.56 1009.22 1009.00 1008.92 1008.98 1009.15 1009.38 1009.61 1009.81 1009.95 1010.03 1010.06 1010.08 1010.15 1010.30 1010.56 1010.94 1011.44 1012.01 1012.63 1013.25 1013.86 1014.43 1014.98 1015.52 1016.08 1016.67 1017.31 1017.97 1018.64 1019.28 1019.84 1020.31 1020.67 1020.92 1021.09 1021.20 1021.29 1021.37 1021.47 1021.57 1021.66 1021.72 1021.75 1021.73
1010.79 1010.59 1010.27 1009.89 1009.53 1009.24 1009.06 1008.99 1009.03 1009.14 1009.28 1009.41 1009.50 1009.53 1009.52 1009.48 1009.46 1009.51 1009.66 1009.94 1010.34 1010.84 1011.43 1012.05 1012.69 1013.30 1013.89 1014.46 1015.03 1015.62 1016.25 1016.91 1017.60 1018.29 1018.94 1019.52 1020.00 1020.37 1020.64 1020.82 1020.95 1021.06 1021.17 1021.28 1021.39 1021.49 1021.56 1021.58 1021.56
1010.63 1010.47 1010.21 1009.90 1009.60 1009.35 1009.18 1009.09 1009.07 1009.09 1009.11 1009.11 1009.07 1008.99 1008.88 1008.77 1008.72 1008.75 1008.91 1009.20 1009.62 1010.15 1010.76 1011.40 1012.06 1012.70 1013.32 1013.92 1014.52 1015.14 1015.79 1016.46 1017.16 1017.84 1018.49 1019.08 1019.57 1019.96 1020.27 1020.50 1020.68 1020.83 1020.98 1021.12 1021.26 1021.38 1021.45 1021.48 1021.47
1010.43 1010.32 1010.12 1009.89 1009.66 1009.46 1009.30 1009.19 1009.09 1009.00 1008.90 1008.76 1008.59 1008.39 1008.19 1008.02 1007.92 1007.94 1008.09 1008.39 1008.83 1009.38 1010.02 1010.71 1011.40 1012.09 1012.76 1013.40 1014.04 1014.68 1015.33 1016.00 1016.68 1017.34 1017.98 1018.56 1019.07 1019.50 1019.85 1020.15 1020.40 1020.62 1020.83 1021.02 1021.19 1021.33 1021.42 1021.45 1021.44
1010.11 1010.05 1009.94 1009.80 1009.65 1009.51 1009.37 1009.23 1009.07 1008.88 1008.66 1008.39 1008.10 1007.79 1007.51 1007.28 1007.14 1007.14 1007.28 1007.57 1008.01 1008.59 1009.25 1009.98 1010.73 1011.48 1012.21 1012.91 1013.60 1014.26 1014.91 1015.56 1016.21 1016.84 1017.45 1018.02 1018.54 1019.01 1019.42 1019.80 1020.13 1020.43 1020.70 1020.95 1021.16 1021.32 1021.42 1021.47 1021.46
1009.64 1009.64 1009.61 1009.57 1009.52 1009.45 1009.34 1009.19 1008.98 1008.71 1008.39 1008.02 1007.62 1007.23 1006.88 1006.59 1006.42 1006.38 1006.49 1006.77 1007.20 1007.78 1008.47 1009.24 1010.05 1010.87 1011.68 1012.45 1013.19 1013.88 1014.54 1015.18 1015.79 1016.38 1016.95 1017.50 1018.03 1018.53 1019.00 1019.44 1019.85 1020.23 1020.57 1020.87 1021.11 1021.30 1021.43 1021.49 1021.50
1009.04 1009.10 1009.16 1009.23 1009.28 1009.28 1009.21 1009.05 1008.81 1008.47 1008.07 1007.61 1007.15 1006.69 1006.29 1005.96 1005.75 1005.68 1005.76 1006.00 1006.42 1006.99 1007.69 1008.49 1009.37 1010.27 1011.16 1012.01 1012.81 1013.54 1014.22 1014.83 1015.41 1015.96 1016.49 1017.02 1017.55 1018.07 1018.59 1019.09 1019.56 1020.00 1020.39 1020.73 1021.01 1021.23 1021.38 1021.47 1021.51
1008.37 1008.50 1008.67 1008.84 1008.99 1009.05 1009.00 1008.84 1008.55 1008.15 1007.67 1007.15 1006.62 1006.13 1005.69 1005.34 1005.11 1005.01 1005.06 1005.28 1005.66 1006.22 1006.92 1007.75 1008.68 1009.65 1010.62 1011.56 1012.42 1013.21 1013.90 1014.51 1015.07 1015.58 1016.08 1016.59 1017.11 1017.64 1018.18 1018.72 1019.23 1019.71 1020.14 1020.51 1020.82 1021.06 1021.25 1021.39 1021.49
1007.71 1007.94 1008.22 1008.50 1008.72 1008.82 1008.78 1008.57 1008.21 1007.72 1007.16 1006.58 1006.00 1005.48 1005.03 1004.68 1004.44 1004.34 1004.38 1004.58 1004.94 1005.48 1006.18 1007.03 1007.99 1009.02 1010.06 1011.07 1012.00 1012.83 1013.56 1014.18 1014.72 1015.22 1015.69 1016.18 1016.69 1017.22 1017.78 1018.33 1018.87 1019.37 1019.82 1020.21 1020.54 1020.82 1021.05 1021.25 1021.43
1007.14 1007.50 1007.90 1008.28 1008.56 1008.67 1008.57 1008.28 1007.80 1007.20 1006.53 1005.86 1005.24 1004.69 1004.25 1003.93 1003.72 1003.65 1003.70 1003.90 1004.26 1004.79 1005.48 1006.34 1007.32 1008.38 1009.47 1010.53 1011.51 1012.39 1013.14 1013.78 1014.33 1014.82 1015.29 1015.77 1016.28 1016.82 1017.38 1017.94 1018.49 1019.00 1019.46 1019.86 1020.21 1020.52 1020.81 1021.08 1021.34
1006.67 1007.20 1007.75 1008.22 1008.53 1008.60 1008.41 1007.98 1007.34 1006.58 1005.77 1005.00 1004.31 1003.76 1003.34 1003.07 1002.94 1002.92 1003.03 1003.27 1003.65 1004.18 1004.87 1005.72 1006.70 1007.76 1008.86 1009.94 1010.95 1011.85 1012.64 1013.30 1013.86 1014.37 1014.85 1015.35 1015.86 1016.41 1016.98 1017.56 1018.11 1018.63 1019.09 1019.50 1019.88 1020.23 1020.57 1020.91 1021.27
1006.26 1007.00 1007.71 1008.27 1008.58 1008.59 1008.27 1007.66 1006.82 1005.86 1004.89 1004.00 1003.26 1002.70 1002.34 1002.15 1002.11 1002.21 1002.41 1002.72 1003.14 1003.69 1004.38 1005.21 1006.16 1007.20 1008.27 1009.33 1010.34 1011.24 1012.04 1012.72 1013.31 1013.85 1014.36 1014.89 1015.44 1016.01 1016.61 1017.20 1017.76 1018.29 1018.77 1019.20 1019.60 1019.98 1020.37 1020.79 1021.23
1005.85 1006.81 1007.68 1008.32 1008.62 1008.55 1008.08 1007.27 1006.23 1005.08 1003.95 1002.95 1002.16 1001.61 1001.32 1001.24 1001.33 1001.56 1001.88 1002.29 1002.78 1003.36 1004.05 1004.84 1005.74 1006.72 1007.73 1008.74 1009.70 1010.58 1011.37 1012.07 1012.69 1013.27 1013.83 1014.40 1015.00 1015.62 1016.25 1016.88 1017.47 1018.02 1018.51 1018.96 1019.39 1019.81 1020.25 1020.72 1021.22
1005.33 1006.50 1007.50 1008.21 1008.51 1008.36 1007.75 1006.77 1005.55 1004.24 1002.98 1001.90 1001.09 1000.59 1000.38 1000.43 1000.67 1001.05 1001.52 1002.04 1002.60 1003.21 1003.89 1004.64 1005.47 1006.35 1007.27 1008.20 1009.09 1009.92 1010.68 1011.38 1012.03 1012.64 1013.26 1013.90 1014.56 1015.23 1015.92 1016.59 1017.22 1017.80 1018.32 1018.80 1019.26 1019.71 1020.18 1020.68 1021.22
1004.63 1005.96 1007.08 1007.84 1008.13 1007.92 1007.21 1006.12 1004.79 1003.37 1002.05 1000.95 1000.17 999.73 999.64 999.82 1000.22 1000.75 1001.35 1001.98 1002.61 1003.24 1003.90 1004.60 1005.33 1006.11 1006.92 1007.73 1008.53 1009.30 1010.02 1010.71 1011.37 1012.02 1012.69 1013.38 1014.11 1014.85 1015.59 1016.31 1016.99 1017.61 1018.17 1018.68 1019.17 1019.64 1020.13 1020.65 1021.20
1003.73 1005.15 1006.34 1007.12 1007.41 1007.17 1006.43 1005.30 1003.93 1002.51 1001.20 1000.16 999.45 999.12 999.15 999.47 1000.01 1000.67 1001.38 1002.08 1002.76 1003.41 1004.04 1004.66 1005.31 1005.97 1006.66 1007.36 1008.06 1008.75 1009.42 1010.08 1010.75 1011.43 1012.14 1012.88 1013.66 1014.45 1015.24 1016.01 1016.73 1017.40 1018.00 1018.54 1019.05 1019.55 1020.05 1020.56 1021.10
1002.70 1004.12 1005.30 1006.08 1006.36 1006.12 1005.40 1004.31 1003.01 1001.68 1000.48 999.56 998.98 998.79 998.94 999.38 1000.02 1000.77 1001.54 1002.29 1002.99 1003.62 1004.20 1004.76 1005.32 1005.88 1006.46 1007.06 1007.67 1008.29 1008.91 1009.55 1010.21 1010.90 1011.63 1012.40 1013.21 1014.03 1014.86 1015.66 1016.42 1017.12 1017.75 1018.33 1018.87 1019.38 1019.88 1020.39 1020.90
1001.65 1002.97 1004.07 1004.79 1005.05 1004.84 1004.18 1003.21 1002.06 1000.90 999.89 999.15 998.74 998.69 998.96 999.48 1000.18 1000.96 1001.75 1002.49 1003.16 1003.76 1004.30 1004.80 1005.28 1005.77 1006.28 1006.80 1007.35 1007.91 1008.50 1009.11 1009.75 1010.44 1011.17 1011.94 1012.75 1013.59 1014.42 1015.24 1016.01 1016.73 1017.40 1018.00 1018.56 1019.09 1019.60 1020.09 1020.58
1000.72 1001.86 1002.80 1003.42 1003.64 1003.44 1002.89 1002.07 1001.12 1000.18 999.40 998.87 998.64 998.72 999.08 999.65 1000.36 1001.12 1001.87 1002.56 1003.18 1003.73 1004.22 1004.67 1005.12 1005.57 1006.04 1006.53 1007.05 1007.59 1008.16 1008.75 1009.38 1010.04 1010.76 1011.51 1012.30 1013.11 1013.93 1014.74 1015.52 1016.25 1016.93 1017.56 1018.14 1018.69 1019.20 1019.69 1020.16
Thickness
5741 5744 5746 5738 5721 5714 5718 5739 5756 5757 5760 5767 5768 5765 5759 5753 5743 5730 5750 5760 5758 5752 5745 5740 5737 5735 5733 5730 5728 5726 5723 5722 5720 5718 5716 5715 5714 5713 5711 5710 5709 5707 5706 5705 5704 5702 5701 5700 5698
5742 5746 5740 5728 5712 5705 5722 5743 5751 5756 5762 5765 5764 5762 5758 5752 5753 5748 5752 5756 5754 5749 5743 5739 5735 5732 5730 5727 5725 5722 5720 5718 5716 5714 5712 5711 5709 5708 5706 5705 5703 5702 5701 5699 5698 5696 5695 5694 5692
5740 5744 5730 5721 5715 5715 5731 5751 5753 5760 5764 5761 5757 5761 5758 5751 5754 5751 5754 5755 5751 5746 5741 5736 5732 5730 5727 5724 5722 5719 5716 5714 5712 5710 5708 5706 5704 5703 5701 5699 5698 5696 5695 5693 5692 5690 5689 5688 5686
5738 5732 5728 5720 5719 5734 5744 5755 5759 5754 5757 5760 5757 5751 5755 5761 5761 5757 5756 5753 5748 5743 5738 5733 5730 5727 5724 5721 5718 5716 5713 5711 5708 5706 5704 5702 5700 5698 5696 5694 5692 5691 5689 5688 5686 5685 5683 5682 5681
5734 5724 5713 5713 5723 5743 5755 5761 5759 5751 5749 5753 5754 5748 5744 5755 5760 5756 5753 5751 5746 5742 5736 5730 5727 5725 5721 5719 5716 5713 5710 5707 5705 5702 5700 5697 5695 5693 5691 5689 5687 5685 5684 5682 5681 5679 5678 5676 5675
5722 5722 5710 5708 5723 5743 5754 5760 5756 5751 5750 5753 5752 5747 5742 5752 5753 5751 5751 5749 5745 5741 5735 5728 5725 5722 5719 5716 5713 5710 5707 5704 5701 5698 5696 5693 5691 5688 5686 5684 5682 5680 5678 5677 5675 5674 5672 5671 5669
5715 5713 5711 5720 5727 5737 5750 5758 5751 5747 5748 5753 5757 5747 5741 5747 5752 5751 5749 5747 5744 5740 5733 5726 5723 5719 5716 5713 5710 5707 5704 5701 5698 5695 5692 5689 5686 5684 5681 5679 5677 5675 5673 5671 5670 5668 5667 5665 5664
5721 5715 5714 5719 5725 5735 5752 5755 5755 5751 5751 5764 5762 5747 5739 5747 5752 5750 5747 5744 5741 5737 5732 5726 5722 5717 5714 5710 5707 5704 5701 5698 5694 5691 5688 5685 5682 5680 5677 5674 5672 5670 5668 5666 5664 5663 5661 5660 5658
5719 5703 5706 5720 5727 5737 5749 5746 5750 5756 5752 5757 5759 5750 5751 5752 5750 5744 5740 5738 5736 5734 5732 5726 5722 5717 5713 5708 5705 5701 5698 5694 5691 5687 5684 5681 5678 5676 5673 5670 5667 5665 5663 5661 5659 5658 5657 5655 5654
5707 5696 5710 5731 5738 5739 5743 5743 5745 5742 5740 5744 5746 5744 5747 5746 5743 5739 5736 5734 5733 5731 5730 5728 5723 5718 5713 5708 5703 5699 5695 5691 5688 5684 5681 5678 5675 5673 5669 5666 5663 5661 5659 5657 5655 5653 5652 5651 5650
5707 5703 5716 5728 5737 5737 5736 5738 5744 5736 5730 5740 5742 5739 5740 5739 5738 5737 5737 5736 5735 5733 5730 5728 5724 5719 5714 5708 5702 5698 5694 5689 5686 5682 5678 5675 5673 5669 5665 5662 5659 5657 5654 5652 5651 5650 5648 5648 5646
5704 5711 5718 5723 5730 5729 5728 5732 5733 5734 5737 5750 5754 5750 5742 5737 5737 5737 5737 5737 5736 5732 5730 5728 5725 5719 5714 5708 5703 5698 5693 5688 5685 5680 5676 5673 5669 5666 5662 5659 5656 5653 5651 5649 5647 5646 5645 5644 5642
5698 5705 5715 5721 5723 5724 5724 5723 5725 5731 5742 5749 5752 5748 5741 5739 5739 5741 5742 5741 5738 5733 5730 5727 5724 5719 5713 5707 5702 5697 5692 5687 5683 5678 5674 5670 5666 5663 5659 5656 5653 5650 5648 5646 5643 5642 5640 5639 5637
5699 5704 5707 5713 5716 5717 5714 5716 5719 5728 5739 5741 5743 5742 5742 5742 5742 5741 5741 5740 5739 5736 5731 5727 5723 5718 5712 5706 5701 5696 5691 5686 5681 5676 5671 5667 5663 5659 5656 5652 5649 5646 5643 5641 5639 5637 5636 5634 5632
5695 5691 5695 5704 5709 5711 5708 5703 5714 5728 5733 5734 5737 5740 5742 5744 5745 5744 5744 5743 5742 5738 5733 5727 5722 5717 5711 5705 5699 5695 5690 5684 5679 5673 5668 5663 5659 5656 5652 5648 5645 5642 5639 5636 5633 5631 5630 5628 5626
5681 5675 5673 5694 5703 5704 5693 5689 5714 5729 5729 5729 5734 5737 5740 5744 5747 5748 5748 5746 5744 5740 5734 5728 5722 5715 5709 5704 5698 5693 5687 5682 5676 5670 5665 5660 5656 5651 5647 5643 5640 5637 5634 5630 5628 5625 5623 5621 5619
5662 5660 5667 5683 5698 5698 5689 5689 5710 5723 5725 5725 5729 5733 5737 5741 5746 5749 5749 5747 5744 5740 5734 5727 5721 5714 5708 5702 5695 5690 5684 5678 5673 5667 5662 5657 5652 5648 5643 5639 5635 5632 5628 5625 5622 5619 5617 5614 5611
5653 5659 5667 5675 5691 5690 5683 5687 5703 5714 5718 5720 5725 5729 5734 5738 5744 5749 5749 5748 5744 5740 5734 5727 5719 5712 5705 5698 5692 5686 5680 5675 5670 5664 5659 5653 5648 5644 5639 5634 5631 5627 5623 5619 5616 5613 5610 5607 5604
5658 5659 5662 5675 5688 5682 5678 5683 5696 5707 5710 5714 5720 5726 5731 5737 5745 5748 5748 5746 5742 5736 5731 5725 5717 5710 5703 5696 5689 5682 5676 5671 5666 5661 5655 5650 5645 5639 5635 5630 5626 5622 5617 5613 5610 5607 5603 5599 5597
5648 5646 5652 5665 5678 5674 5671 5678 5693 5703 5708 5714 5719 5724 5729 5734 5739 5742 5743 5742 5738 5733 5728 5723 5716 5709 5702 5695 5688 5681 5673 5667 5662 5656 5651 5646 5640 5635 5630 5625 5621 5617 5612 5608 5604 5600 5595 5592 5588
5642 5642 5645 5649 5660 5665 5660 5663 5681 5699 5709 5715 5721 5726 5731 5733 5734 5736 5737 5737 5734 5730 5725 5721 5715 5707 5700 5692 5683 5675 5667 5660 5655 5650 5645 5641 5636 5631 5625 5621 5616 5611 5607 5602 5598 5593 5588 5582 5579
5635 5648 5646 5643 5636 5636 5646 5639 5670 5689 5699 5709 5716 5722 5727 5731 5733 5733 5733 5732 5730 5726 5721 5716 5710 5703 5696 5688 5680 5673 5666 5659 5654 5648 5641 5636 5631 5626 5621 5616 5611 5606 5601 5596 5591 5587 5581 5576 5570
5639 5646 5640 5636 5627 5623 5634 5629 5658 5684 5689 5702 5712 5718 5723 5727 5729 5730 5730 5728 5725 5721 5715 5710 5704 5698 5691 5684 5677 5669 5663 5657 5650 5643 5636 5631 5626 5621 5616 5611 5606 5600 5595 5590 5585 5580 5574 5569 5563
5640 5633 5628 5624 5615 5606 5630 5624 5643 5674 5689 5700 5709 5714 5718 5721 5724 5725 5724 5721 5717 5713 5708 5702 5697 5691 5686 5679 5673 5666 5659 5653 5646 5639 5632 5626 5621 5615 5610 5605 5600 5594 5589 5583 5578 5572 5567 5561 5556
5628 5611 5593 5588 5588 5603 5635 5629 5649 5682 5697 5702 5705 5708 5711 5713 5713 5713 5712 5710 5707 5703 5699 5695 5690 5684 5679 5673 5668 5662 5656 5650 5644 5637 5630 5623 5616 5610 5605 5600 5594 5588 5583 5577 5571 5565 5559 5554 5548
5620 5612 5595 5588 5595 5616 5629 5629 5660 5688 5697 5702 5703 5704 5704 5704 5704 5704 5703 5701 5698 5695 5691 5687 5683 5678 5673 5668 5663 5657 5651 5646 5640 5634 5627 5620 5613 5607 5600 5594 5588 5582 5576 5570 5564 5557 5551 5546 5540
5612 5610 5618 5608 5610 5605 5622 5644 5666 5682 5685 5690 5692 5693 5693 5694 5695 5694 5693 5692 5689 5686 5683 5680 5676 5671 5667 5662 5657 5652 5647 5641 5636 5630 5623 5616 5609 5602 5595 5588 5582 5576 5569 5563 5557 5550 5544 5538 5532
5619 5614 5603 5593 5584 5583 5608 5626 5643 5663 5670 5678 5682 5683 5685 5686 5686 5685 5684 5683 5681 5678 5674 5671 5668 5664 5660 5656 5651 5647 5642 5637 5631 5625 5618 5611 5604 5597 5589 5582 5576 5569 5563 5556 5549 5543 5537 5530 5524
5605 5604 5601 5593 5591 5590 5595 5622 5664 5667 5672 5673 5676 5679 5680 5679 5678 5676 5676 5675 5672 5669 5666 5662 5659 5656 5652 5649 5645 5640 5636 5631 5625 5619 5613 5606 5599 5592 5584 5577 5570 5563 5556 5549 5542 5535 5529 5523 5516
5607 5606 5602 5589 5591 5599 5599 5622 5670 5671 5672 5673 5672 5673 5674 5673 5672 5670 5668 5666 5663 5661 5658 5655 5652 5649 5646 5642 5638 5634 5629 5624 5619 5613 5607 5600 5593 5586 5579 5571 5564 5557 5550 5543 5536 5529 5522 5516 5509